CAPE
0 0 0 0 0 0 0 0 114 313 386 399 466 319 298 240 130 91 21 58 219 170 164 49 11 3 0 5 4 2 0 0 0 0 0 6 6 1 1 18 5 10 8
0 0 0 0 0 0 0 1 0 49 79 113 323 509 378 223 168 55 32 110 209 258 212 175 58 11 2 6 1 1 0 0 0 0 0 0 7 4 0 18 9 10 6
0 0 0 0 0 0 0 0 0 3 68 133 104 60 228 269 220 130 75 99 232 202 158 227 149 49 18 3 1 1 0 0 0 0 0 0 0 13 6 12 5 4 10
0 0 0 0 0 0 0 0 0 0 0 66 104 189 169 125 146 170 96 89 192 205 295 220 277 153 35 3 3 2 0 0 0 0 0 0 0 4 10 9 9 14 5
0 0 0 0 0 0 0 0 0 0 0 0 37 117 93 135 115 121 94 78 102 147 187 188 332 241 105 27 8 5 3 0 0 0 0 0 0 2 8 11 4 15 12
0 0 0 0 0 0 0 0 0 0 0 0 0 13 109 98 126 142 101 56 55 70 114 143 204 167 114 78 25 10 8 4 0 0 1 1 3 0 25 14 0 13 17
0 0 0 0 0 0 0 0 0 0 0 0 5 26 85 130 138 117 155 94 62 42 62 32 59 55 53 58 60 57 23 7 1 4 13 19 20 17 27 21 18 24 31
0 0 0 0 0 0 0 0 0 0 0 0 4 68 78 78 55 53 95 170 79 24 3 7 24 16 1 7 12 30 30 23 18 2 8 14 6 3 18 17 40 21 36
0 0 0 0 0 0 0 0 0 0 1 0 5 39 128 113 50 1 10 5 90 44 20 12 1 0 0 1 3 3 0 0 1 3 12 24 15 16 27 33 43 30 18
8 2 0 0 0 0 0 0 0 0 0 1 0 41 90 81 94 16 0 0 0 27 57 5 1 2 1 0 0 0 0 0 4 4 22 35 28 36 34 41 37 16 9
1 12 10 0 0 0 0 0 0 0 0 0 0 1 85 76 122 49 34 0 0 0 0 0 14 9 0 0 0 0 0 2 0 9 26 52 55 73 52 22 9 9 6
0 0 1 0 0 0 0 0 0 0 0 0 0 0 1 108 185 74 2 1 0 1 1 0 0 1 1 0 0 0 1 11 13 24 12 13 8 8 9 9 8 5 11
0 0 0 0 0 0 0 0 0 0 0 0 0 0 0 38 103 113 20 0 0 3 1 1 0 0 1 2 5 7 15 4 2 2 1 4 6 1 3 4 5 8 7
0 0 0 0 0 0 0 0 0 0 0 3 0 0 0 0 86 81 35 0 0 1 1 1 0 0 0 3 2 3 3 4 6 6 5 3 3 1 1 1 1 1 1
0 0 0 0 0 0 0 0 0 0 14 8 9 6 4 0 4 128 80 3 0 0 1 0 0 1 1 1 3 1 3 10 10 6 3 0 0 0 0 0 0 0 1
0 0 0 0 0 0 0 0 0 0 14 0 6 9 8 3 0 85 134 11 0 0 0 2 1 1 2 1 5 1 4 8 8 2 0 0 0 0 0 0 0 0 1
0 0 0 0 0 0 0 0 0 2 0 1 1 4 14 11 119 130 167 34 0 0 0 2 1 1 1 2 2 1 0 0 1 1 0 1 3 1 0 1 1 1 1
0 0 0 0 0 0 0 0 0 1 6 4 3 12 19 13 0 24 144 58 0 0 0 1 2 2 1 2 1 0 1 0 1 2 2 2 2 1 6 3 1 2 1
0 0 0 0 0 0 0 0 3 1 5 3 0 0 7 15 1 86 70 2 1 1 1 2 3 1 1 1 1 0 0 0 0 1 8 16 11 13 18 18 31 21 12
0 0 0 0 0 0 0 0 2 2 2 1 2 2 9 26 50 77 2 4 3 3 1 2 2 3 2 1 0 1 0 0 0 0 2 0 0 3 3 7 11 7 8
0 0 0 0 0 0 0 1 1 0 1 2 2 2 20 13 92 1 2 3 3 2 2 2 2 2 2 2 0 0 0 0 0 0 0 0 0 0 0 5 4 7 20
1 0 0 0 0 0 0 2 4 2 2 3 2 1 3 117 4 4 2 2 0 2 2 4 3 0 2 2 0 0 0 0 0 0 0 0 0 0 0 2 4 2 16
2 1 1 1 1 0 2 3 4 2 1 2 1 2 2 2 2 8 19 17 9 3 0 1 1 2 0 1 0 0 0 0 0 0 0 0 0 0 0 0 6 8 20
1 1 2 1 3 1 4 3 3 2 2 2 3 2 1 1 1 1 0 0 0 1 1 0 0 0 0 0 0 0 0 0 0 0 0 0 0 0 0 0 6 10 21
3 1 1 1 0 1 2 3 0 1 1 1 1 1 2 2 2 0 0 1 1 1 0 0 0 0 0 0 0 0 0 0 0 0 0 0 0 0 0 0 0 0 17
0 6 1 1 2 2 3 3 2 1 2 2 2 2 3 1 0 0 0 0 0 0 0 0 0 0 0 0 0 0 0 0 0 0 0 0 0 0 0 0 0 0 0
CIN
-0 -0 -0 -0 -0 -0 -0 -0 -91 -47 -23 -18 -13 -19 -27 -36 -64 -65 -71 -55 -37 -38 -22 -33 -37 -41 -0 -0 -0 -0 -0 -0 -0 -0 -0 -1 -0 -0 -0 -0 -1 -0 -0
-0 -0 -0 -0 -0 -0 -0 -6 -0 -85 -108 -57 -3 -4 -17 -40 -50 -67 -66 -56 -34 -19 -23 -19 -28 -24 -0 -0 -0 -0 -0 -0 -0 -0 -0 -0 -0 -2 -0 -0 -1 -0 -1
-0 -0 -0 -0 -0 -0 -0 -0 -0 -10 -66 -62 -64 -73 -18 -27 -49 -53 -64 -68 -33 -27 -29 -27 -27 -9 -14 -0 -0 -0 -0 -0 -0 -0 -0 -0 -0 -0 -0 -0 -0 -0 -0
-0 -0 -0 -0 -0 -0 -0 -0 -0 -0 -0 -57 -55 -31 -32 -40 -56 -57 -65 -70 -47 -37 -21 -20 -18 -3 -2 -0 -0 -0 -0 -0 -0 -0 -0 -0 -0 -0 -0 -0 -0 -0 -0
-0 -0 -0 -0 -0 -0 -0 -0 -0 -0 -0 -0 -56 -86 -65 -46 -36 -51 -56 -74 -67 -49 -33 -22 -7 -1 -0 -3 -0 -0 -0 -0 -0 -0 -0 -0 -0 -0 -2 -0 -0 -0 -0
-0 -0 -0 -0 -0 -0 -0 -0 -0 -0 -0 -0 -0 -51 -82 -46 -41 -30 -53 -91 -83 -50 -46 -40 -15 -6 -1 -0 -0 -2 -0 -0 -0 -0 -0 -0 -0 -0 -0 -0 -0 -0 -0
-0 -0 -0 -0 -0 -0 -0 -0 -0 -0 -0 -0 -84 -110 -91 -72 -51 -45 -27 -52 -92 -94 -33 -55 -34 -27 -4 -2 -0 -0 -11 -0 -0 -8 -5 -0 -0 -0 -0 -0 -0 -0 -0
-0 -0 -0 -0 -0 -0 -0 -0 -0 -0 -0 -0 -42 -20 -19 -71 -102 -69 -37 -27 -69 -99 -49 -93 -39 -60 -18 -21 -21 -2 -2 -22 -0 -0 -1 -2 -4 -1 -0 -2 -0 -2 -0
-0 -0 -0 -0 -0 -0 -0 -0 -0 -0 -0 -0 -42 -4 -1 -5 -71 -0 -132 -60 -25 -47 -80 -96 -39 -2 -8 -26 -44 -33 -0 -0 -0 -0 -2 -0 -2 -1 -1 -0 -0 -0 -1
-30 -29 -0 -0 -0 -0 -0 -0 -0 -0 -0 -0 -0 -14 -2 -2 -3 -30 -0 -0 -0 -18 -17 -29 -0 -22 -35 -0 -17 -0 -0 -0 -37 -37 -12 -0 -0 -2 -2 -0 -0 -1 -0
-29 -36 -33 -0 -0 -0 -0 -0 -0 -0 -0 -0 -0 -0 -6 -2 -2 -9 -58 -0 -0 -0 -0 -0 -45 -47 -0 -0 -0 -0 -0 -15 -0 -0 -4 -0 -1 -0 -0 -0 -0 -0 -0
-0 -0 -22 -0 -0 -0 -0 -0 -0 -0 -0 -0 -0 -0 -0 -3 -0 -5 -11 -0 -0 -0 -0 -0 -0 -0 -0 -32 -0 -0 -6 -1 -1 -0 -0 -0 -0 -0 -0 -0 -0 -0 -0
-0 -0 -0 -0 -0 -0 -0 -0 -0 -0 -0 -0 -0 -0 -0 -25 -1 -3 -40 -0 -0 -0 -0 -0 -0 -0 -0 -0 -0 -0 -0 -0 -0 -0 -0 -0 -0 -0 -0 -0 -0 -0 -0
-0 -0 -0 -0 -0 -0 -0 -0 -0 -0 -0 -2 -0 -0 -0 -0 -7 -4 -43 -0 -0 -0 -0 -0 -0 -0 -0 -0 -0 -0 -0 -0 -0 -0 -0 -0 -0 -0 -0 -0 -0 -0 -1
-0 -0 -0 -0 -0 -0 -0 -0 -0 -0 -11 -4 -2 -2 -1 -0 -0 -3 -14 -23 -0 -0 -0 -0 -0 -0 -0 -0 -0 -0 -0 -0 -0 -0 -0 -0 -0 -0 -0 -0 -0 -0 -0
-0 -0 -0 -0 -0 -0 -0 -0 -0 -1 -4 -0 -11 -4 -3 -5 -0 -16 -6 -87 -0 -0 -0 -0 -0 -0 -0 -0 -0 -0 -0 -0 -0 -0 -0 -0 -0 -0 -0 -0 -0 -0 -0
-0 -0 -0 -0 -0 -0 -0 -0 -0 -7 -0 -11 -25 -7 -2 -93 -9 -2 -3 -73 -0 -0 -0 -0 -0 -0 -0 -0 -0 -0 -0 -0 -1 -0 -0 -0 -1 -0 -0 -0 -0 -0 -0
-0 -0 -0 -0 -0 -0 -0 -0 -7 -7 -1 -0 -4 -1 -73 -87 -6 -53 -22 -41 -0 -0 -0 -0 -0 -0 -0 -0 -0 -0 -0 -0 -1 -1 -0 -0 -0 -0 -0 -0 -1 -0 -0
-0 -0 -0 -0 -0 -0 -1 -0 -1 -0 -0 -0 -0 -1 -51 -93 -19 -6 -48 -0 -0 -0 -0 -0 -0 -0 -0 -0 -0 -0 -0 -0 -0 -0 -0 -0 -0 -0 -0 -1 -0 -0 -1
-0 -0 -0 -0 -0 -0 -0 -0 -0 -0 -0 -0 -1 -0 -81 -60 -34 -18 -0 -0 -0 -0 -0 -0 -0 -0 -0 -0 -0 -0 -0 -0 -0 -0 -0 -1 -0 -2 -1 -0 -0 -0 -1
-0 -0 -0 -0 -0 -0 -0 -0 -0 -0 -0 -0 -0 -0 -107 -74 -15 -0 -0 -0 -0 -0 -0 -0 -0 -0 -0 -0 -0 -0 -0 -0 -0 -0 -0 -0 -0 -0 -0 -5 -2 -1 -0
-1 -0 -0 -0 -0 -0 -0 -0 -0 -0 -0 -0 -0 -0 -35 -3 -0 -0 -0 -0 -0 -0 -0 -0 -0 -0 -0 -0 -0 -0 -0 -0 -0 -0 -0 -0 -0 -0 -0 -3 -1 -2 -0
-0 -0 -0 -0 -0 -0 -0 -0 -0 -0 -0 -0 -0 -0 -0 -0 -0 -0 -0 -0 -0 -0 -0 -0 -0 -0 -0 -0 -0 -0 -0 -0 -0 -0 -0 -0 -0 -0 -0 -0 -1 -0 -0
-0 -0 -0 -0 -0 -0 -0 -0 -0 -0 -0 -0 -0 -0 -0 -0 -0 -0 -0 -0 -0 -0 -0 -0 -0 -0 -0 -0 -0 -0 -0 -0 -0 -0 -0 -0 -0 -0 -0 -0 -0 -1 -0
-0 -0 -0 -0 -0 -0 -0 -0 -0 -0 -0 -0 -0 -0 -0 -0 -0 -0 -0 -0 -0 -0 -0 -0 -0 -0 -0 -0 -0 -0 -0 -0 -0 -0 -0 -0 -0 -0 -0 -0 -0 -0 -0
-9 -0 -0 -0 -0 -0 -0 -0 -0 -0 -0 -0 -0 -0 -0 -0 -0 -0 -0 -0 -0 -0 -0 -0 -0 -0 -0 -0 -0 -0 -0 -0 -0 -0 -0 -0 -0 -0 -0 -0 -0 -0 -0
Wind_Speed
38 37 38 37 37 37 38 37 36 35 32 30 28 25 23 19 19 19 17 10 9 8 6 5 5 6 8 9 10 13 13 14 16 17 19 20 23 25 26 27 30 31 33
40 39 39 38 37 37 37 38 37 37 34 33 33 29 27 26 25 20 21 17 13 10 8 7 6 7 7 7 9 10 11 12 14 16 17 20 22 23 25 26 29 30 31
41 41 40 40 39 39 39 38 38 37 36 34 35 33 32 28 27 26 20 17 14 13 10 8 8 7 7 7 8 8 9 11 13 15 17 19 21 23 25 26 27 29 31
42 42 43 43 42 41 39 39 39 39 39 37 37 35 33 29 27 27 21 18 17 15 13 11 9 8 7 7 7 8 8 8 9 13 15 19 20 22 24 26 27 28 30
42 44 44 44 44 43 41 40 40 39 41 40 38 38 35 34 31 27 23 20 18 17 17 13 10 9 8 6 7 7 9 10 11 13 16 17 20 21 23 25 26 27 28
44 46 46 44 43 44 44 42 43 42 41 41 42 41 36 34 31 27 25 22 21 19 15 13 12 11 9 7 6 7 8 11 11 14 15 18 20 22 22 23 25 25 26
43 44 43 43 43 44 44 43 43 43 42 40 41 41 39 35 33 31 28 24 22 24 18 16 15 13 12 10 8 8 8 11 12 13 16 21 21 20 20 23 24 24 24
41 41 41 41 41 43 43 43 43 44 43 39 39 40 40 36 33 31 30 29 26 23 22 20 18 16 15 12 12 12 10 12 12 14 18 20 19 20 20 21 22 22 23
41 41 41 40 40 40 42 42 43 43 45 41 39 38 38 40 33 30 31 30 29 27 24 22 21 18 17 15 12 11 12 14 14 16 17 18 19 20 19 19 18 19 24
42 41 40 40 40 39 40 41 41 42 43 45 40 38 40 38 34 34 31 29 29 29 27 24 22 21 17 13 11 11 13 12 13 15 17 18 18 18 17 15 17 22 26
42 41 39 39 39 40 39 41 42 43 43 45 43 42 39 39 37 34 33 30 26 27 27 28 22 20 16 15 12 11 11 10 13 14 14 14 14 14 16 18 21 25 29
41 38 38 37 38 38 39 41 42 42 42 43 45 43 43 40 36 35 34 30 27 27 28 27 27 27 13 12 11 11 8 6 7 8 11 12 13 15 18 21 25 28 31
38 37 36 36 37 38 39 40 41 40 40 40 41 43 42 41 39 36 34 33 32 27 27 25 27 27 17 12 6 7 2 2 4 7 10 13 15 16 20 23 27 29 31
36 37 34 34 35 37 39 39 39 39 39 38 39 42 42 43 37 35 34 31 30 28 23 23 21 22 15 13 8 5 1 3 4 8 10 13 16 19 22 24 26 29 32
34 35 35 38 37 38 40 40 40 39 38 38 39 39 41 42 40 34 32 32 31 30 30 21 21 19 9 7 6 6 1 4 6 9 12 15 17 20 21 22 27 29 31
38 39 42 42 42 41 41 41 40 38 38 40 40 39 40 39 40 35 31 29 30 28 26 24 20 9 6 4 5 6 3 7 9 11 14 15 17 19 21 25 27 29 31
43 37 36 36 33 34 38 40 41 39 41 40 39 39 39 38 36 36 32 27 27 24 19 17 17 11 8 8 2 1 5 7 9 13 14 16 18 20 23 26 28 29 29
39 38 37 36 38 41 38 37 39 40 39 38 38 38 40 37 38 38 32 28 25 20 18 15 16 14 7 3 2 3 7 7 10 14 15 17 18 21 24 24 27 27 28
31 32 41 36 34 34 34 35 36 37 38 38 39 39 39 38 39 34 27 23 20 17 16 16 15 14 7 4 2 3 5 9 12 14 17 19 19 21 24 24 26 27 27
30 33 34 35 31 28 29 32 34 35 37 36 38 39 39 39 38 28 20 18 17 16 14 15 16 12 8 4 2 1 6 10 13 16 17 19 20 22 22 25 26 28 28
27 28 27 25 26 23 25 27 30 31 32 34 36 38 38 40 39 16 16 15 14 15 15 15 13 13 7 3 1 2 6 10 13 15 17 19 20 21 22 24 25 27 28
26 26 21 24 22 23 25 27 29 30 31 31 34 35 37 39 13 15 15 17 17 16 15 14 12 8 7 3 3 3 5 9 17 17 16 18 19 21 23 25 25 26 27
19 17 19 21 23 25 25 24 26 29 31 31 28 17 16 14 12 12 12 11 10 9 13 11 10 7 6 4 5 5 9 13 13 13 14 17 19 21 23 24 25 25 27
18 17 18 22 23 24 26 21 18 16 16 18 14 13 13 13 13 13 15 12 13 14 14 11 9 7 7 7 7 7 9 11 13 14 16 17 19 20 22 23 25 26 27
6 6 5 17 29 28 28 17 14 20 17 16 14 15 16 18 26 21 22 21 18 18 17 16 16 14 12 11 11 11 11 11 13 14 15 16 17 19 21 24 25 25 27
10 14 16 18 19 22 19 17 19 20 20 22 23 28 35 32 31 30 24 26 24 17 17 17 15 15 14 13 13 13 12 12 12 14 15 15 16 18 20 23 25 26 26
Wind_Direction
317 314 312 309 307 303 298 296 293 290 287 285 286 284 282 277 281 280 283 249 232 243 267 294 306 325 335 341 343 346 356 0 360 359 3 2 353 354 355 355 350 351 350
315 313 311 309 306 304 302 296 292 289 286 285 286 284 280 280 279 276 278 275 236 247 257 271 285 302 319 332 337 345 353 356 357 354 356 354 349 353 352 352 353 353 355
315 311 308 306 305 303 299 296 293 289 286 285 282 281 282 280 279 276 275 271 243 236 247 251 271 281 293 312 325 335 348 356 353 354 354 354 348 347 347 351 353 354 355
314 311 307 303 302 301 298 295 291 287 284 283 282 279 279 279 274 278 274 269 260 254 252 250 261 264 274 293 308 322 339 356 5 355 352 345 344 348 347 346 349 351 354
311 308 305 303 300 296 295 294 290 287 283 280 280 278 276 276 275 276 273 270 261 255 260 242 247 257 258 271 291 308 319 329 339 341 343 344 340 348 347 344 348 351 354
309 306 303 300 300 296 292 290 288 285 282 280 277 277 276 274 274 273 272 270 268 259 249 253 257 258 246 249 268 286 307 315 332 332 335 335 336 338 343 347 347 351 353
311 308 304 300 299 295 291 288 286 283 280 280 278 274 272 271 272 272 272 271 265 256 256 257 259 256 256 250 259 276 295 311 324 329 329 327 333 338 341 342 345 348 354
312 311 305 302 300 295 291 287 283 281 277 277 273 273 270 269 269 270 269 269 268 262 259 257 257 250 249 260 267 278 291 306 315 327 324 325 334 337 340 342 346 353 356
311 308 304 301 299 298 290 288 282 278 275 274 271 268 267 265 267 270 269 269 268 266 262 259 259 247 252 259 266 275 285 296 308 319 326 325 329 332 340 347 355 3 354
310 307 303 300 298 296 291 287 284 276 274 270 272 268 266 265 269 267 270 270 270 270 266 263 249 249 250 254 260 272 282 291 307 316 325 326 329 333 346 4 10 1 353
310 306 304 301 298 296 291 289 284 276 272 268 267 267 268 265 263 264 267 267 271 273 273 267 260 248 255 256 259 273 282 290 307 319 329 341 354 13 23 12 2 354 345
311 310 306 302 300 297 292 289 286 277 272 268 265 264 263 263 261 259 262 266 266 274 275 271 264 264 245 240 251 255 271 297 330 354 3 8 5 0 358 355 349 347 344
313 312 309 306 303 299 295 292 286 278 273 268 265 262 261 263 262 262 258 260 264 273 273 270 266 269 248 240 229 227 205 5 3 357 358 354 353 348 344 342 341 342 340
316 314 311 309 307 302 295 291 287 278 273 268 266 263 260 258 263 259 257 255 258 264 270 270 275 266 264 223 234 198 83 83 11 1 358 350 347 344 343 341 339 340 337
319 313 311 307 306 298 292 287 284 276 269 268 266 264 258 256 259 260 257 253 253 255 255 270 267 273 267 195 179 116 9 43 16 7 355 347 343 344 346 346 342 340 338
314 308 293 289 285 278 278 281 278 272 267 267 265 263 257 254 254 258 256 254 251 250 253 256 258 241 205 149 126 85 62 23 15 4 2 355 353 350 348 343 341 339 336
281 265 263 263 255 256 265 268 265 266 262 260 259 257 252 250 249 252 253 251 246 243 237 247 242 237 199 184 282 9 339 353 357 356 1 3 354 351 348 346 342 340 339
267 265 263 262 264 269 259 253 251 253 253 255 254 250 244 245 246 248 248 246 240 235 219 213 223 224 208 147 130 56 26 7 5 7 1 354 354 351 351 351 345 344 342
257 255 271 260 257 252 249 244 240 239 239 246 243 239 239 239 239 243 240 237 232 224 213 198 207 216 207 139 94 8 357 352 354 357 355 356 356 357 356 352 352 350 346
257 259 259 260 253 247 240 234 232 233 235 236 230 229 230 231 230 236 226 222 212 209 204 198 195 177 190 240 88 39 335 347 347 349 352 353 352 352 351 349 347 345 342
258 258 256 251 244 231 227 223 222 222 219 216 218 217 219 214 215 215 205 204 190 193 192 184 180 198 191 193 275 343 348 350 351 352 351 353 351 349 347 347 347 348 347
263 259 250 243 230 224 221 221 216 212 208 203 202 204 209 215 193 177 170 161 159 163 191 174 178 173 216 186 90 14 11 345 327 343 351 351 351 350 347 346 349 350 349
266 260 251 236 228 220 208 197 202 202 196 200 194 190 182 175 164 154 133 142 133 139 144 173 147 156 137 105 74 22 349 345 350 353 355 351 350 353 352 352 354 354 353
272 264 249 234 213 190 181 193 175 169 166 170 154 128 128 133 143 132 119 118 104 106 101 108 109 112 88 70 32 19 20 14 10 5 0 356 359 359 1 1 359 359 358
259 279 252 178 169 169 162 107 117 144 140 146 128 99 104 103 104 102 104 104 98 90 87 89 86 82 73 63 59 44 19 14 6 6 14 10 7 7 7 4 1 359 358
119 105 78 89 111 140 97 90 87 91 104 101 89 87 89 95 94 96 100 97 91 88 86 76 65 57 52 49 35 36 42 35 28 12 15 10 4 359 4 6 3 2 1